San Angelo, TX

3:54 PM CDT on April 26, 2017 (GMT -0500)
San Angelo Regional-Mathis

Weather History for KSJT - May, 2013

Change the Weather History Date:

Wednesday, May 15, 2013

  Actual Average Record
Temperature  
Mean Temperature 77 °F 74 °F  
Max Temperature 92 °F 87 °F 101 °F (1978)
Min Temperature 62 °F 62 °F 38 °F (1926)
Degree Days  
Heating Degree Days 0 0  
Month to date heating degree days 32 8  
Since 1 July heating degree days 1919 2314  
Cooling Degree Days 12 10  
Month to date cooling degree days 71 120  
Year to date cooling degree days 320 276  
Growing Degree Days 26 (Base 50)    
Moisture  
Dew Point 59 °F    
Average Humidity 58    
Maximum Humidity 93    
Minimum Humidity 23    
Precipitation  
Precipitation 0.00 in 0.08 in 2.14 in (1981)
Month to date precipitation 1.42 1.12  
Year to date precipitation 4.23 6.32  
Sea Level Pressure  
Sea Level Pressure 29.88 in    
Wind  
Wind Speed 11 mph (South)    
Max Wind Speed 28 mph    
Max Gust Speed 37 mph    
Visibility 10 miles    
Events Rain    
T = Trace of Precipitation, MM = Missing Value Source: NWS Daily Summary

Daily Weather History Graph

Daily Weather History Graph

Search for Another Location

Airport or City:

Trip Planner

Search our weather history database for the weather conditions in past years. The results will help you decide how hot, cold, wet, or windy it might be!

Date:

Astronomy

May. 15, 2013 Rise Set
Actual Time 6:45 AM CDT 8:31 PM CDT
Civil Twilight 6:19 AM CDT 8:58 PM CDT
Nautical Twilight 5:47 AM CDT 9:30 PM CDT
Astronomical Twilight 5:13 AM CDT 10:04 PM CDT
Moon 11:19 AM CDT (5/15) 12:21 AM CDT (5/15)
Length of Visible Light 14h 38m
Length of Day
13h 45m
Waxing Crescent, 27% of the Moon is Illuminated
May 15
Waxing Crescent
May 17
First Quarter
May 24
Full
May 31
Last Quarter
Jun 8
New

Hourly Weather History & Observations

Time (CDT) Temp. Heat Index Dew Point Humidity Pressure Visibility Wind Dir Wind Speed Gust Speed Precip Events Conditions
12:07 AM 62.6 °F - 60.8 °F 94% 30.10 in 2.5 mi SW 10.4 mph - 0.05 in Rain Heavy Rain
12:42 AM 62.6 °F - 60.8 °F 94% 30.06 in 4.0 mi NNE 3.5 mph - 0.26 in Rain Rain
12:51 AM 62.1 °F - 60.1 °F 93% 30.00 in 8.0 mi East 4.6 mph - 0.27 in Rain Light Rain
1:51 AM 62.1 °F - 60.1 °F 93% 29.97 in 10.0 mi SE 5.8 mph - 0.00 in   Partly Cloudy
2:51 AM 62.1 °F - 60.1 °F 93% 29.96 in 10.0 mi SSE 6.9 mph - N/A   Mostly Cloudy
3:41 AM 62.6 °F - 60.8 °F 94% 30.02 in 10.0 mi South 3.5 mph - N/A   Overcast
3:51 AM 63.0 °F - 61.0 °F 93% 29.96 in 10.0 mi South 4.6 mph - N/A   Overcast
4:09 AM 62.6 °F - 60.8 °F 94% 30.02 in 10.0 mi SSE 3.5 mph - N/A   Scattered Clouds
4:42 AM 62.6 °F - 60.8 °F 94% 30.00 in 10.0 mi SE 4.6 mph - N/A   Overcast
4:51 AM 63.0 °F - 61.0 °F 93% 29.93 in 10.0 mi Calm Calm - N/A   Overcast
5:51 AM 64.0 °F - 61.0 °F 90% 29.92 in 10.0 mi SE 4.6 mph - N/A   Overcast
6:26 AM 64.4 °F - 60.8 °F 88% 29.97 in 10.0 mi South 6.9 mph - N/A   Scattered Clouds
6:51 AM 63.0 °F - 61.0 °F 93% 29.91 in 10.0 mi South 3.5 mph - N/A   Clear
7:51 AM 64.9 °F - 62.1 °F 90% 29.91 in 10.0 mi SW 6.9 mph - N/A   Partly Cloudy
8:15 AM 68.0 °F - 62.6 °F 83% 29.96 in 10.0 mi South 12.7 mph - N/A   Mostly Cloudy
8:51 AM 69.1 °F - 64.0 °F 84% 29.90 in 10.0 mi SSW 11.5 mph - N/A   Overcast
9:51 AM 71.1 °F - 64.9 °F 81% 29.91 in 10.0 mi SSW 17.3 mph 24.2 mph N/A   Overcast
10:51 AM 75.0 °F - 64.9 °F 71% 29.89 in 10.0 mi South 20.7 mph 27.6 mph N/A   Mostly Cloudy
11:11 AM 77.0 °F - 64.4 °F 65% 29.94 in 10.0 mi SSW 20.7 mph 26.5 mph N/A   Scattered Clouds
11:51 AM 79.0 °F - 64.9 °F 62% 29.87 in 10.0 mi SSW 16.1 mph 26.5 mph N/A   Clear
12:51 PM 81.0 °F 82.2 °F 63.0 °F 54% 29.85 in 10.0 mi South 20.7 mph 28.8 mph N/A   Clear
1:51 PM 84.0 °F 84.4 °F 61.0 °F 46% 29.83 in 10.0 mi SSW 18.4 mph 26.5 mph N/A   Clear
2:51 PM 88.0 °F 88.4 °F 62.1 °F 42% 29.79 in 10.0 mi SW 17.3 mph 23.0 mph N/A   Clear
3:51 PM 89.1 °F 86.9 °F 54.0 °F 30% 29.77 in 10.0 mi SSW 13.8 mph 24.2 mph N/A   Clear
4:51 PM 91.0 °F - 48.0 °F 23% 29.72 in 10.0 mi SSW 13.8 mph 24.2 mph N/A   Clear
5:51 PM 91.9 °F - 48.9 °F 23% 29.69 in 10.0 mi SSW 17.3 mph 24.2 mph N/A   Clear
6:51 PM 91.0 °F - 50.0 °F 24% 29.67 in 10.0 mi South 16.1 mph - N/A   Clear
7:51 PM 88.0 °F - 51.1 °F 28% 29.68 in 10.0 mi SSW 13.8 mph - N/A   Clear
8:51 PM 82.9 °F 81.8 °F 53.1 °F 36% 29.70 in 10.0 mi SSW 8.1 mph - N/A   Clear
9:31 PM 78.8 °F - 51.8 °F 39% 29.81 in 10.0 mi NNE 16.1 mph 36.8 mph N/A   Clear
9:51 PM 75.9 °F - 55.0 °F 48% 29.76 in 10.0 mi NNE 12.7 mph - N/A   Clear
10:51 PM 71.1 °F - 57.0 °F 61% 29.77 in 10.0 mi SE 6.9 mph - N/A   Clear
11:51 PM 69.1 °F - 57.9 °F 68% 29.74 in 10.0 mi South 5.8 mph - N/A   Clear